Skip Page Navigation
NASA JPL Caltech
NASA Logo - Jet Propulsion Laboratory + View the NASA Portal
+ Center for Near-Earth Object Studies
JPL Home Earth Solar System Stars & Galaxies Technology
JPL Solar System Dynamics
BODIES ORBITS EPHEMERIDES TOOLS PHYSICAL DATA DISCOVERY FAQ SITE MAP
JPL Small-Body Database Browser
Search: [ help ]  
3068 Khanina (1982 YJ1)
Classification: Main-belt Asteroid          SPK-ID: 2003068
Ephemeris | Orbit Diagram | Orbital Elements | Mission Design | Physical Parameters | Discovery Circumstances ]

[ hide orbit diagram ]

For accurate long-term ephemerides, please instead use our Horizons system.This orbit viewer was implemented using two-body methods, and hence should not be used for determining accurate long-term trajectories (over several years or decades) or planetary encounter circumstances.


[ revert to old Java-based viewer ]

Orbital Elements at Epoch 2459000.5 (2020-May-31.0) TDB
Reference: JPL 29 (heliocentric ecliptic J2000)
 Element Value Uncertainty (1-sigma)   Units 
e .1018256964088407 3.2952e-08  
a 2.229577616145024 5.841e-09 au
q 2.002549322683494 7.3329e-08 au
i 6.442635142342554 3.6543e-06 deg
node 21.54462297813318 2.5445e-05 deg
peri 132.9229996010646 3.029e-05 deg
M 36.71209462511622 1.5502e-05 deg
tp 2458876.495060836574
(2020-Jan-27.99506084)
5.2388e-05 TDB
period 1215.996487116594
3.33
4.7785e-06
1.308e-08
d
yr
n .2960534868432412 1.1634e-09 deg/d
Q 2.456605909606554 6.4358e-09 au
  Orbit Determination Parameters
   # obs. used (total)      2620  
   data-arc span      23611 days (64.64 yr)  
   first obs. used      1955-10-25  
   last obs. used      2020-06-16  
   planetary ephem.      DE431  
   SB-pert. ephem.      SB431-N16  
   condition code      0  
   norm. resid. RMS      .4224  
   source      ORB  
   producer      Otto Matic  
   solution date      2020-Jun-23 15:53:02  

Additional Information
 Earth MOID = 1.01766 au 
 Jupiter MOID = 2.52774 au 
 T_jup = 3.628 
[ show covariance matrix ]

Ephemeris | Orbit Diagram | Orbital Elements | Mission Design | Physical Parameters | Discovery Circumstances ]

Physical Parameter Table
Parameter Symbol Value Units Sigma Reference Notes
absolute magnitude H 13.0   n/a MPO458860  
diameter diameter 6.515 km 0.080 urn:nasa:pds:neowise_diameters_albedos::2.0[mainbelt] (http://adsabs.harvard.edu/abs/2014ApJ...791..121M)  
rotation period rot_per 3.61 h n/a LCDB (Rev. 2019-August); Warner et al., 2009 Published Reference List:
[Behrend, R. (2010) Observatoire de Geneve web site, http://obswww.unige.ch/~behrend/page_cou.html]
geometric albedo albedo 0.218   0.053 urn:nasa:pds:neowise_diameters_albedos::2.0[mainbelt] (http://adsabs.harvard.edu/abs/2014ApJ...791..121M)  

3068 Khanina (1982 YJ1)          Discovered 1982-Dec-23 by Karachkina, L. G. at Nauchnyj
Reference: DISCOVERY.DBLast Updated: 2003-08-29

Alternate Designations
 1982 YJ1 = 1955 UJ1 = 1957 HB1 = 1960 FG = 1970 EP3 = 1975 VV6 = 1978 SN1 = 1978 TY1 
Ephemeris | Orbit Diagram | Orbital Elements | Mission Design | Physical Parameters | Discovery Circumstances ]
ABOUT SSD CREDITS/AWARDS PRIVACY/COPYRIGHT GLOSSARY LINKS
FirstGov 2020-Aug-06 00:01 UT
(server date/time)  
NASA Home Page
Site Manager:   Ryan S. Park
Webmaster  Alan B. Chamberlin